Погода в Мичуринске

Погода в Мичуринске : погода сейчас, прогноз погоды и архив. Всё, что Вы хотите узнать о погоде в Мичуринске!

Хотите узнать прогноз погоды в Мичуринске? Тогда Вам сюда: Погода в Мичуринске

Поиск расширенной информации на нашем сайте:

Другие новости

Новости СМИ2

Главная страница сайта

Новости сайта

03.07.2017

Напоминаем, что на нашем специализированном сайте Метеоцентр.Азия вы можете получить высокодетализированные автоматические прогнозы погоды по пунктам России, СНГ и мира в авиационном формате (включающие направление и скорость ветра, видимость, явления погоды, количество и форму облачности, нижнюю и верхнюю границу облачности).

Рекомендуем: Купить женские велосипеды giant 2014.

Погода в Мичуринске - сегодня

Время (UTC), дата Ветер
(°,м/с) 
Видим.   Явления Облачность Т
(°С)
Тd
(°С)
f(%) Тe
(°С)
Pmin
(гПа)
dP
(гПа)
Po
(мм)
O2
(г/м3)
Тmin Tmax R s Состояние
почвы
06 17.09.17 тихо ()   20000 м    ясно 
+14.2 +8.9 70 +14  1024.8  0.5  754  287           
09 17.09.17 270 (З) 20000 м    3/0 верхняя 
[Ci fib]
+19.9 +7.7 45 +21  1024.2  -0.2  754  282           
12 17.09.17 250 (З) 20000 м    8/8 1000 м 
[Sc]
+21.4 +7.6 41 +21  1022.3  -1.7  753  280           
18 17.09.17 тихо ()   20000 м    ясно 
+15.1 +9.5 69 +16  1020.8  -0.4  752  285           
21 17.09.17 тихо ()   4000 м  дымка  ясно 
+13.2 +8.8 75 +13  1019.7  -1.2  751  287           
00 18.09.17 110 (В) 10 км    ясно 
+13 +8 72 +13  1018.5  -1.2  750  287           
03 18.09.17 тихо ()   10 км    ясно 
+12.1 +7.1 71 +12  1016.7  -1.9  748  288  +11.8         
06 18.09.17 160 (Ю) 20000 м    9/0 верхняя 
[Ci fib]
+16.4 +8.1 58 +17  1015.1  -1.3  747  283           
09 18.09.17 160 (Ю) 20000 м    9/0 верхняя 
[Ci fib]
+23.1 +10.2 44 +25  1012.8  -1.7  746  275           
12 18.09.17 180 (Ю) 20000 м    9/0 верхняя 
[Ci fib]
+28.1 +9.2 31 +28  1010.8  -1.7  745  271           
18 18.09.17 180 (Ю) 20000 м    ясно 
+21.3 +6.5 38 +21  1009.3  -0.2  743  277           
21 18.09.17 250 (З) 20000 м    ясно 
+17.5 +7.4 51 +18  1009.9  0.3  744  280           
00 19.09.17 230 (ЮЗ) 20000 м    8/8 600 м 
[Sc]
+15 +9.5 70 +17  1011.2  1.2  744  283           
03 19.09.17 250 (З) 10 км    9/3 600 м верхняя 
[Sc|Ci fib]
+13.7 +8.9 73 +14  1012.6  1.3  745  284  +13.7         
06 19.09.17 230 (ЮЗ) 20000 м    6/0 верхняя 
[Ci fib]
+15 +7.6 61 +16  1014.6  1.9  747  284  +13.1         
09 19.09.17 230 (ЮЗ) 20000 м    3/0 верхняя 
[Ci fib]
+19.9 +4.6 37 +21  1014.9  0.7  747  280           
12 19.09.17 250 (З) 20000 м    ясно 
+20.9 +3.6 32 +21  1016  1.1  748  279           
15 19.09.17 тихо ()   20000 м    6/0 верхняя 
[Ci fib]
+17.9 +6.1 46 +18  1017.2  749  282    +21.2       
18 19.09.17 320 (СЗ) 20000 м    ясно 
+13.7 +5.9 59 +14  1019.4  1.9  750  287           
21 19.09.17 360 (С) 20000 м    ясно 
+11.4 +5.3 66 +12  1021.2  1.6  752  290           
00 20.09.17 тихо ()   4000 м  дымка  ясно 
+7.9 +4.8 81 +8  1022.3  0.9  752  294           
03 20.09.17 340 (С) 4000 м  дымка  ясно 
+7.5 +4.3 80 +7  1022.9  0.5  753  294  +7.2         
06 20.09.17 070 (В) 20000 м    ясно 
+12.7 +5.5 62 +12  1024.2  1.6  754  289           
09 20.09.17 070 (В) 20000 м    ясно 
+16.8 +4.3 43 +17  1023.5  -0.4  754  285           
12 20.09.17 050 (СВ) 20000 м    3/0 верхняя 
[Ci fib]
+19 +4.1 37 +20  1022.4  -0.9  753  283           
Время (UTC), дата Ветер
(°,м/с) 
Видим.   Явления Облачность Т
(°С)
Тd
(°С)
f(%) Тe
(°С)
Pmin
(гПа)
dP
(гПа)
Po
(мм)
O2
(г/м3)
Тmin Tmax R s Состояние
почвы

Для получения пояснительной информации подведите курсор к названию столбца.

ПОГОДА в Мичуринске - архив

Всё, что Вы хотите узнать о погоде в Мичуринске - удобно и подробно!

Выберите нужную дату (начиная с 1 января 2015* года) и нажмите кнопку "Найти".
Будут отображены архивные сводки погоды по пункту Мичуринск, начиная с указанной даты.


Отображать данные в формате CSV (для использования в таблицах Excel)


Внимание! Наш архив погоды предназначен исключительно для личного некоммерческого использования в познавательных целях. Если Вам необходимы официальные справки о состоянии погоды (для производственных, юридических, коммерческих и т.п. целей), обращайтесь в органы Росгидромета.

*Примечание: данная дата относится к архиву по метеостанциям СССР (Россия, СНГ, Балтия).
Архив по метеостанциям Зарубежной Европы и Азии (кроме Китая) хранится 10 дней, по другим регионам земного шара (Китай, Африка, Америка, Австралия, Океания) - 1 день.

Мичуринск - район местоположения метеостанции


Название, широта, долгота, высота метеостанции:
Мичуринск 52.9°ш. 40.5°д. 158 м над ур. моря [Российская Федерация]

Дополнительная информация

В oтличие oт бoльшинства пoгoдных сайтoв мы публикуем пoдрoбную метеoинфoрмацию в детальнoм прoфессиoнальнoм фoрмате.

Характеристики температуры и влажнoсти вoздуха измеряются на высoте 2 м в тени вдали oт зданий и деревьев.
Скoрoсть ветра измеряется на высoте 10 м (на урoвне рoста челoвека скoрoсть ветра ниже в 1.5-2 раза). Если метеoстанция нахoдится в гoрoде или в лесу, тo скoрoсть ветра занижена на 2-4 м/с пo сравнению с oткрытым местoм. Скoрoсть ветра над акватoриями крупных рек и oзёр, а также на вершинах хoлмoв на 2-5 м/с выше, чем в oбычных услoвиях.
Атмoсфернoе давление в разных тoчках местнoсти мoжет значительнo oтличаться oт давления на метеoстанции, в зависимoсти oт услoвий рельефа (при пoдъёме на 10 м давление пoнижается примернo на 1 мм рт.ст.).